sat.trackr.live / text

‹ back to catalog

STARLINK-36256

NORAD 67103 · 2025-299B

PAYLOAD ACTIVE UNKNOWN

§ Identity

Operator
Country
US
Launch date
2025-12-15
Launch site
AFETR
Launch vehicle
Mass (kg)
RCS (m²)

Purposes: comms

External: N2YO · Heavens-Above · Gunter

§ Orbital elements

Epoch: 2026-09-20T00:04:15.984192Z

Period
94.27 min
Inclination
43.0012°
Eccentricity
0.0000754
Mean motion
15.27596891 rev/d
Perigee alt
482.5 km
Apogee alt
483.5 km
Semi-major
6,861.1 km
B*
4.7867e-4
RAAN
151.6444°
Arg perigee
275.3518°
Mean anomaly
84.7247°
Rev number
4,283

§ Raw data

STARLINK-362561 67103U 25299B   26263.00296278  .00012940  00000+0  47867-3 0  99972 67103  43.0012 151.6444 0000754 275.3518  84.7247 15.27596891 42833

JSON: /api/v1/satellites/67103 · /tle

For live sub-satellite position, see the globe view (requires WebGL).

§ Visibility from observer

Set your observer location to see the next 7 days of passes ≥ 10°. The values pass through the URL so the page stays shareable.

No JS? Fill the form by hand. The geolocation button needs JavaScript.